Location: *
(41.0833°N, 73.4167°W)
Time: 12:19:09
(UTC+00:00)

ADEOS - Pass Details

Date: 22 October 2019
Orbit: 793 x 794 km, 98.8° (Epoch: 18 November)

Event Time Altitude Azimuth Distance (km) Brightness Sun altitude
Rises 09:00:48 0° 10° (N) 3,304 7.0 -25.5°
Reaches altitude 10° 09:03:09 10° 7° (N) 2,370 6.2 -25.1°
Enters shadow 09:08:16 62° 290° (WNW) 895 3.5 -24.1°
